星链-35299(STARLINK-35299)

导读

STARLINK-35299是美国SpaceX星链互联网星座的成员,于2025年10月19日发射升空。该卫星延续星链项目低轨运行、提供全球高速互联网接入的设计目标,服务偏远地区网络覆盖,支撑航海、航空等移动场景联网,也为美国军方提供通信支持,进一步壮大了星链低轨星座的规模。

Basic Information
目录编号:
66072
目录名称:
STARLINK-35299
国际标识:
2025-235Q
轨道中心:
EARTH
卫星名称:
星链-35299
卫星全名:
星链-35299(STARLINK-35299)
卫星状态:
在轨 (已飞行320 天)
发射日期:
2025-10-19 UTC
国别 :
美国 (US)
星等 :
--
Orbit Information
数据来源 国际轨道数据 AOE轨道数据
星历时间 2026-09-03T09:55:13+0800
1天前
查看轨道信息
2026-09-03T00:00:00+0800
1天前
查看轨道信息
半长轴 6840.764km 6840.781km
偏心率 0.0000927 0.0001362
轨道倾角 53.157° 53.157°
近地点辐角 93.298° 68.766°
升交点赤经 138.976° 140.911°
平近点角 266.813° 166.767°
近地点 461.992km 461.712km
远地点 463.262km 463.576km
周期 93.846分钟 93.847分钟
每日圈数 15.344259 15.344201
Detailed Information
固有亮度:
5
最大亮度:
2.5
卫星平台:
Starlink V1.0
覆盖范围:
全球
运营商:
太空探索技术公司
运营商所在国:
美国
制造商(研发单位):
太空探索技术公司
制造商所在国:
美国
使用方式:
暂无
Satellite Introduction
Starlink 计划是 SpaceX 推出的全球卫星互联网项目,通过发射低轨道卫星,为全球尤其是偏远地区提供高速、低延迟的互联网服务。自 2019 年起,Starlink 已部署数千颗卫星,旨在缩小全球数字鸿沟,推动互联网普及。该项目还为军事、航空等行业提供通信支持,带来广泛经济效益。
2D Orbit Map
3D Orbit Map
Orbit Altitude Analysis Chart
Orbit Inclination Analysis Chart
Orbit Comprehensive Analysis Chart
View Comprehensive Chart
Conjunction Data List
Event ID Objects TCA Miss Dist (km) Collision Risk Probability Collision Risk Index (CRI) Action
CDM_260904-192205-249306-607221
2026-09-04T
19:22:04+0000
2.409 km
极远距离
1.675722E-6 低风险 0.39
CDM_260829-003405-407606-607221
2026-08-29T
00:34:51+0000
2.616 km
极远距离
1.34414E-6 低风险 0.38
CDM_260903-142806-034506-607221
2026-09-03T
14:28:15+0000
2.976 km
极远距离
1.208659E-6 低风险 0.37
CDM_260827-232305-265006-607221
2026-08-27T
23:23:44+0000
2.521 km
极远距离
6.738138E-7 极低风险 0.32